Location: Newark
(7.0858°N, 171.3717°E)
Time: 05:01:00
(UTC+00:00)

Vanguard 2 - Pass Details

Date: 27 November 2020
Orbit: 553 x 2937 km, 32.9° (Epoch: 26 January)

Event Time Altitude Azimuth Distance (km) Brightness Sun altitude
Rises 21:48:21 0° 269° (W) 4,541 11.1 42.7°
Reaches altitude 10° 21:53:17 10° 289° (WNW) 3,044 10.3 43.7°
Maximum altitude 21:57:24 16° 324° (NW) 2,223 9.6 44.5°
Drops below altitude 10° 22:00:42 10° 2° (N) 2,317 9.8 45.1°
Sets 22:03:43 0° 26° (NNE) 2,996 10.5 45.7°
